Location: Grandview
(34.8900°N, 117.1058°W)
Time: 18:25:44
(UTC-08:00)

Envisat - Pass Details

Date: 12 October 2017
Orbit: 764 x 766 km, 98.2° (Epoch: 09 December)

Event Time Altitude Azimuth Distance (km) Brightness Sun altitude
Exits shadow 21:54:22 11° 308° (NW) 2,249 6.0 -44.4°
Drops below altitude 10° 21:54:31 10° 309° (NW) 2,291 6.0 -44.4°
Sets 21:57:37 0° 328° (NNW) 3,237 6.8 -45.0°
